"read_dt","SO2 (ppb)","flags","PMT voltage (V)","lamp voltage (V)","lamp intensity (Hz)","internal temp (C)","react chamber temp (C)","sample flow (l/min)","pres (mmHg)","SO2 bkg (ppb)","SO2 coefficient"
2014-05-02 00:00:00,2794E-2,5C000400,-0724,1012,10371,022.7,045.1,0.167,759.3,01.16,0.508
2014-05-02 00:01:00,2781E-2,5C000400,-0724,1013,10493,022.7,045.1,0.167,759.4,01.16,0.508
2014-05-02 00:02:00,2790E-2,5C000400,-0724,1013,10479,022.7,045.1,0.167,759.4,01.16,0.508
2014-05-02 00:03:00,2801E-2,5C000400,-0724,1013,10212,022.7,045.1,0.167,759.3,01.16,0.508
2014-05-02 00:04:00,2747E-2,5C000400,-0724,1013,10318,022.7,045.1,0.167,759.3,01.16,0.508
2014-05-02 00:05:00,2741E-2,5C000400,-0724,1013,10272,022.7,045.1,0.167,759.3,01.16,0.508
2014-05-02 00:06:00,2746E-2,5C000400,-0724,1012,10273,022.8,045.1,0.167,759.4,01.16,0.508
2014-05-02 00:07:00,2778E-2,5C000400,-0724,1014,10463,022.8,045.1,0.167,759.3,01.16,0.508
2014-05-02 00:08:00,2721E-2,5C000400,-0724,1013,10348,022.8,045.1,0.167,759.3,01.16,0.508
2014-05-02 00:09:00,2774E-2,5C000400,-0724,1013,10305,022.8,045.1,0.167,759.3,01.16,0.508
2014-05-02 00:10:00,2805E-2,5C000400,-0724,1014,10393,022.8,045.1,0.167,759.3,01.16,0.508
2014-05-02 00:11:00,2795E-2,5C000400,-0724,1013,10353,022.8,045.1,0.167,759.4,01.16,0.508
2014-05-02 00:12:00,2765E-2,5C000400,-0724,1014,10461,022.8,045.2,0.167,759.4,01.16,0.508
2014-05-02 00:13:00,2827E-2,5C000400,-0724,1014,10361,022.8,045.1,0.167,759.3,01.16,0.508
2014-05-02 00:14:00,2802E-2,5C000400,-0724,1014,10483,022.8,045.1,0.167,759.3,01.16,0.508
2014-05-02 00:15:00,2771E-2,5C000400,-0724,1013,10359,022.8,045.1,0.167,759.3,01.16,0.508
2014-05-02 00:16:00,2782E-2,5C000400,-0724,1013,10493,022.8,045.1,0.167,759.3,01.16,0.508
2014-05-02 00:17:00,2805E-2,5C000400,-0724,1014,10320,022.8,045.2,0.167,759.3,01.16,0.508
2014-05-02 00:18:00,2876E-2,5C000400,-0724,1015,10419,022.8,045.2,0.167,759.3,01.16,0.508
2014-05-02 00:19:00,2801E-2,5C000400,-0724,1014,10342,022.8,045.2,0.167,759.3,01.16,0.508
2014-05-02 00:20:00,2787E-2,5C000400,-0724,1015,10430,022.8,045.2,0.166,759.3,01.16,0.508
2014-05-02 00:21:00,2821E-2,5C000400,-0724,1014,10329,022.8,045.2,0.166,759.3,01.16,0.508
2014-05-02 00:22:00,2814E-2,5C000400,-0724,1016,10333,022.8,045.1,0.167,759.3,01.16,0.508
2014-05-02 00:23:00,2858E-2,5C000400,-0724,1015,10433,022.8,045.1,0.166,759.3,01.16,0.508
2014-05-02 00:24:00,2847E-2,5C000400,-0724,1015,10454,022.8,045.1,0.167,759.3,01.16,0.508
2014-05-02 00:25:00,2860E-2,5C000400,-0724,1014,10450,022.8,045.1,0.166,759.3,01.16,0.508
2014-05-02 00:26:00,2870E-2,5C000400,-0724,1015,10528,022.9,045.1,0.166,759.2,01.16,0.508
2014-05-02 00:27:00,2863E-2,5C000400,-0724,1015,10462,022.9,045.1,0.166,759.3,01.16,0.508
2014-05-02 00:28:00,2824E-2,5C000400,-0724,1014,10414,022.9,045.1,0.166,759.3,01.16,0.508
2014-05-02 00:29:00,2882E-2,5C000400,-0724,1015,10310,022.9,045.1,0.166,759.3,01.16,0.508
2014-05-02 00:30:00,2879E-2,5C000400,-0724,1015,10363,022.9,045.2,0.166,759.3,01.16,0.508
2014-05-02 00:31:00,2897E-2,5C000400,-0724,1016,10406,022.9,045.1,0.166,759.3,01.16,0.508
2014-05-02 00:32:00,2901E-2,5C000400,-0724,1016,10224,022.9,045.2,0.166,759.3,01.16,0.508
2014-05-02 00:33:00,2872E-2,5C000400,-0724,1016,10534,022.9,045.1,0.166,759.3,01.16,0.508
2014-05-02 00:34:00,2883E-2,5C000400,-0724,1015,10291,022.9,045.1,0.166,759.3,01.16,0.508
2014-05-02 00:35:00,2935E-2,5C000400,-0724,1015,10275,022.9,045.2,0.166,759.3,01.16,0.508
2014-05-02 00:36:00,2914E-2,5C000400,-0724,1015,10299,022.9,045.2,0.166,759.3,01.16,0.508
2014-05-02 00:37:00,2895E-2,5C000400,-0724,1017,10415,022.9,045.1,0.166,759.2,01.16,0.508
2014-05-02 00:38:00,2885E-2,5C000400,-0724,1016,10307,022.9,045.1,0.166,759.3,01.16,0.508
2014-05-02 00:39:00,2857E-2,5C000400,-0724,1016,10414,022.9,045.2,0.166,759.3,01.16,0.508
2014-05-02 00:40:00,2874E-2,5C000400,-0724,1016,10353,022.9,045.2,0.166,759.3,01.16,0.508
2014-05-02 00:41:00,2914E-2,5C000400,-0724,1017,10370,022.9,045.2,0.166,759.3,01.16,0.508
2014-05-02 00:42:00,2918E-2,5C000400,-0724,1018,10479,022.9,045.2,0.166,759.3,01.16,0.508
2014-05-02 00:43:00,2900E-2,5C000400,-0724,1016,10509,022.9,045.2,0.166,759.3,01.16,0.508
2014-05-02 00:44:00,2907E-2,5C000400,-0724,1017,10417,023.0,045.2,0.166,759.3,01.16,0.508
2014-05-02 00:45:00,2905E-2,5C000400,-0724,1015,10324,023.0,045.2,0.166,759.3,01.16,0.508
2014-05-02 00:46:00,2920E-2,5C000400,-0724,1015,10486,023.0,045.1,0.166,759.2,01.16,0.508
2014-05-02 00:47:00,2879E-2,5C000400,-0724,1015,10237,022.9,045.2,0.166,759.3,01.16,0.508
2014-05-02 00:48:00,2893E-2,5C000400,-0724,1016,10398,023.0,045.2,0.166,759.3,01.16,0.508
2014-05-02 00:49:00,2865E-2,5C000400,-0724,1015,10369,023.0,045.2,0.166,759.3,01.16,0.508
2014-05-02 00:50:00,2908E-2,5C000400,-0724,1015,10372,023.0,045.2,0.166,759.3,01.16,0.508
2014-05-02 00:51:00,2851E-2,5C000400,-0724,1015,10409,023.0,045.2,0.166,759.3,01.16,0.508
2014-05-02 00:52:00,2886E-2,5C000400,-0724,1016,10421,023.0,045.2,0.166,759.3,01.16,0.508
2014-05-02 00:53:00,2889E-2,5C000400,-0724,1016,10428,023.0,045.2,0.166,759.3,01.16,0.508
2014-05-02 00:54:00,2929E-2,5C000400,-0724,1016,10183,023.0,045.2,0.166,759.2,01.16,0.508
2014-05-02 00:55:00,2927E-2,5C000400,-0724,1016,10450,023.0,045.1,0.166,759.3,01.16,0.508
2014-05-02 00:56:00,2920E-2,5C000400,-0724,1017,10367,023.0,045.2,0.166,759.3,01.16,0.508
2014-05-02 00:57:00,2879E-2,5C000400,-0724,1016,10396,023.0,045.2,0.166,759.2,01.16,0.508
2014-05-02 00:58:00,2911E-2,5C000400,-0724,1016,10439,023.1,045.1,0.166,759.2,01.16,0.508
2014-05-02 00:59:00,2942E-2,5C000400,-0724,1015,10317,023.0,045.1,0.166,759.3,01.16,0.508
2014-05-02 01:00:00,2934E-2,5C000400,-0724,1015,10266,023.0,045.2,0.166,759.3,01.16,0.508
2014-05-02 01:01:00,2933E-2,5C000400,-0724,1017,10290,023.1,045.2,0.166,759.2,01.16,0.508
2014-05-02 01:02:00,2927E-2,5C000400,-0724,1016,10394,023.1,045.1,0.166,759.2,01.16,0.508
2014-05-02 01:03:00,2935E-2,5C000400,-0724,1016,10498,023.1,045.2,0.166,759.3,01.16,0.508
2014-05-02 01:04:00,2927E-2,5C000400,-0724,1016,10578,023.1,045.1,0.166,759.2,01.16,0.508
2014-05-02 01:05:00,2927E-2,5C000400,-0724,1014,10263,023.1,045.1,0.166,759.2,01.16,0.508
2014-05-02 01:06:00,2888E-2,5C000400,-0724,1016,10266,023.1,045.1,0.166,759.2,01.16,0.508
2014-05-02 01:07:00,2950E-2,5C000400,-0724,1016,10260,023.1,045.2,0.166,759.2,01.16,0.508
2014-05-02 01:08:00,2913E-2,5C000400,-0724,1017,10354,023.1,045.2,0.166,759.2,01.16,0.508
2014-05-02 01:09:00,2916E-2,5C000400,-0724,1017,10374,023.1,045.2,0.166,759.2,01.16,0.508
2014-05-02 01:10:00,2904E-2,5C000400,-0724,1018,10369,023.1,045.2,0.166,759.2,01.16,0.508
2014-05-02 01:11:00,2951E-2,5C000400,-0724,1017,10372,023.1,045.1,0.166,759.2,01.16,0.508
2014-05-02 01:12:00,2934E-2,5C000400,-0724,1017,10334,023.1,045.1,0.166,759.2,01.16,0.508
2014-05-02 01:13:00,2933E-2,5C000400,-0724,1017,10346,023.1,045.2,0.166,759.2,01.16,0.508
2014-05-02 01:14:00,2944E-2,5C000400,-0724,1018,10225,023.1,045.2,0.166,759.2,01.16,0.508
2014-05-02 01:15:00,2970E-2,5C000400,-0724,1017,10405,023.1,045.2,0.166,759.2,01.16,0.508
2014-05-02 01:16:00,2929E-2,5C000400,-0724,1017,10413,023.2,045.1,0.166,759.2,01.16,0.508
2014-05-02 01:17:00,2985E-2,5C000400,-0724,1017,10311,023.2,045.1,0.166,759.2,01.16,0.508
2014-05-02 01:18:00,2903E-2,5C000400,-0724,1015,10431,023.2,045.2,0.166,759.2,01.16,0.508
2014-05-02 01:19:00,2896E-2,5C000400,-0724,1017,10275,023.2,045.2,0.166,759.2,01.16,0.508
2014-05-02 01:20:00,2910E-2,5C000400,-0724,1017,10205,023.2,045.2,0.166,759.2,01.16,0.508
2014-05-02 01:21:00,2909E-2,5C000400,-0724,1018,10401,023.2,045.1,0.166,759.1,01.16,0.508
2014-05-02 01:22:00,2937E-2,5C000400,-0724,1016,10419,023.2,045.1,0.166,759.2,01.16,0.508
2014-05-02 01:23:00,2916E-2,5C000400,-0724,1018,10275,023.2,045.2,0.166,759.2,01.16,0.508
2014-05-02 01:24:00,2887E-2,5C000400,-0724,1016,10132,023.2,045.2,0.166,759.2,01.16,0.508
2014-05-02 01:25:00,2930E-2,5C000400,-0724,1016,10409,023.2,045.2,0.166,759.2,01.16,0.508
2014-05-02 01:26:00,2912E-2,5C000400,-0724,1017,10351,023.2,045.2,0.166,759.2,01.16,0.508
2014-05-02 01:27:00,2931E-2,5C000400,-0724,1018,10350,023.2,045.2,0.166,759.2,01.16,0.508
2014-05-02 01:28:00,2956E-2,5C000400,-0724,1017,10308,023.2,045.2,0.166,759.2,01.16,0.508
2014-05-02 01:29:00,2945E-2,5C000400,-0724,1016,10356,023.2,045.2,0.166,759.1,01.16,0.508
2014-05-02 01:30:00,2952E-2,5C000400,-0724,1018,10229,023.2,045.2,0.166,759.2,01.16,0.508
2014-05-02 01:31:00,2900E-2,5C000400,-0724,1017,10379,023.2,045.2,0.165,759.2,01.16,0.508
2014-05-02 01:32:00,2973E-2,5C000400,-0724,1018,10284,023.3,045.2,0.165,759.1,01.16,0.508
2014-05-02 01:33:00,2953E-2,5C000400,-0724,1017,10160,023.3,045.2,0.166,759.1,01.16,0.508
2014-05-02 01:34:00,2973E-2,5C000400,-0724,1018,10171,023.3,045.2,0.165,759.2,01.16,0.508
2014-05-02 01:35:00,2931E-2,5C000400,-0724,1019,10421,023.3,045.2,0.165,759.2,01.16,0.508
2014-05-02 01:36:00,2962E-2,5C000400,-0724,1017,10453,023.3,045.2,0.165,759.2,01.16,0.508
2014-05-02 01:37:00,2880E-2,5C000400,-0724,1017,10487,023.3,045.2,0.165,759.2,01.16,0.508
2014-05-02 01:38:00,2909E-2,5C000400,-0724,1019,10412,023.3,045.2,0.165,759.1,01.16,0.508
2014-05-02 01:39:00,2893E-2,5C000400,-0724,1017,10335,023.3,045.1,0.165,759.2,01.16,0.508
2014-05-02 01:40:00,2831E-2,5C000400,-0724,1018,10291,023.3,045.2,0.165,759.2,01.16,0.508
2014-05-02 01:41:00,2786E-2,5C000400,-0724,1016,10296,023.3,045.2,0.165,759.3,01.16,0.508
2014-05-02 01:42:00,2808E-2,5C000400,-0724,1017,10272,023.3,045.1,0.165,759.2,01.16,0.508
2014-05-02 01:43:00,2816E-2,5C000400,-0724,1017,10268,023.3,045.2,0.165,759.1,01.16,0.508
2014-05-02 01:44:00,2801E-2,5C000400,-0724,1019,10337,023.3,045.1,0.165,759.1,01.16,0.508
2014-05-02 01:45:00,2831E-2,5C000400,-0724,1016,10299,023.3,045.2,0.165,759.2,01.16,0.508
2014-05-02 01:46:00,2805E-2,5C000400,-0724,1018,10446,023.3,045.2,0.165,759.2,01.16,0.508
2014-05-02 01:47:00,2802E-2,5C000400,-0724,1018,10556,023.3,045.2,0.165,759.2,01.16,0.508
2014-05-02 01:48:00,2823E-2,5C000400,-0724,1018,10452,023.4,045.1,0.165,759.2,01.16,0.508
2014-05-02 01:49:00,2789E-2,5C000400,-0724,1018,10202,023.4,045.2,0.165,759.2,01.16,0.508
2014-05-02 01:50:00,2801E-2,5C000400,-0724,1019,10358,023.4,045.2,0.165,759.2,01.16,0.508
2014-05-02 01:51:00,2834E-2,5C000400,-0724,1019,10426,023.4,045.2,0.165,759.2,01.16,0.508
2014-05-02 01:52:00,2870E-2,5C000400,-0724,1019,10465,023.4,045.2,0.165,759.2,01.16,0.508
2014-05-02 01:53:00,2829E-2,5C000400,-0724,1018,10199,023.4,045.2,0.165,759.1,01.16,0.508
2014-05-02 01:54:00,2774E-2,5C000400,-0724,1018,10373,023.4,045.2,0.165,759.2,01.16,0.508
2014-05-02 01:55:00,2759E-2,5C000400,-0724,1018,10270,023.4,045.2,0.165,759.1,01.16,0.508
2014-05-02 01:56:00,2818E-2,5C000400,-0724,1020,10383,023.4,045.2,0.165,759.1,01.16,0.508
2014-05-02 01:57:00,2784E-2,5C000400,-0724,1019,10403,023.4,045.2,0.165,759.2,01.16,0.508
2014-05-02 01:58:00,2819E-2,5C000400,-0724,1019,10332,023.4,045.2,0.165,759.2,01.16,0.508
2014-05-02 01:59:00,2827E-2,5C000400,-0724,1018,10507,023.5,045.2,0.165,759.1,01.16,0.508
2014-05-02 02:00:00,2812E-2,5C000400,-0724,1019,10247,023.5,045.2,0.165,759.2,01.16,0.508
2014-05-02 02:01:00,2805E-2,5C000400,-0724,1020,10311,023.4,045.2,0.165,759.2,01.16,0.508
2014-05-02 02:02:00,2773E-2,5C000400,-0724,1019,10367,023.5,045.1,0.165,759.2,01.16,0.508
2014-05-02 02:03:00,2849E-2,5C000400,-0724,1018,10254,023.5,045.2,0.165,759.2,01.16,0.508
2014-05-02 02:04:00,2862E-2,5C000400,-0724,1019,10186,023.5,045.2,0.165,759.1,01.16,0.508
2014-05-02 02:05:00,2867E-2,5C000400,-0724,1019,10358,023.5,045.2,0.165,759.1,01.16,0.508
2014-05-02 02:06:00,2825E-2,5C000400,-0724,1020,10345,023.5,045.2,0.165,759.2,01.16,0.508
2014-05-02 02:07:00,2814E-2,5C000400,-0724,1020,10420,023.5,045.2,0.165,759.1,01.16,0.508
2014-05-02 02:08:00,2832E-2,5C000400,-0724,1020,10280,023.5,045.2,0.165,759.1,01.16,0.508
2014-05-02 02:09:00,2798E-2,5C000400,-0724,1020,10257,023.5,045.1,0.165,759.2,01.16,0.508
2014-05-02 02:10:00,2797E-2,5C000400,-0724,1019,10340,023.5,045.2,0.165,759.3,01.16,0.508
2014-05-02 02:11:00,2823E-2,5C000400,-0724,1019,10359,023.5,045.2,0.165,759.2,01.16,0.508
2014-05-02 02:12:00,2812E-2,5C000400,-0724,1020,10389,023.5,045.2,0.165,759.1,01.16,0.508
2014-05-02 02:13:00,2814E-2,5C000400,-0724,1020,10364,023.5,045.2,0.165,759.2,01.16,0.508
2014-05-02 02:14:00,2791E-2,5C000400,-0724,1019,10322,023.5,045.2,0.165,759.2,01.16,0.508
2014-05-02 02:15:00,2805E-2,5C000400,-0724,1020,10422,023.5,045.2,0.165,759.2,01.16,0.508
2014-05-02 02:16:00,2793E-2,5C000400,-0724,1020,10452,023.5,045.2,0.165,759.1,01.16,0.508
2014-05-02 02:17:00,2783E-2,5C000400,-0724,1020,10311,023.5,045.2,0.165,759.2,01.16,0.508
2014-05-02 02:18:00,2809E-2,5C000400,-0724,1019,10346,023.5,045.2,0.165,759.3,01.16,0.508
2014-05-02 02:19:00,2874E-2,5C000400,-0724,1019,10116,023.6,045.2,0.165,759.2,01.16,0.508
2014-05-02 02:20:00,2845E-2,5C000400,-0724,1020,10296,023.6,045.2,0.165,759.2,01.16,0.508
2014-05-02 02:21:00,2870E-2,5C000400,-0724,1020,10161,023.6,045.2,0.165,759.2,01.16,0.508
2014-05-02 02:22:00,2836E-2,5C000400,-0724,1020,10237,023.6,045.2,0.165,759.2,01.16,0.508
2014-05-02 02:23:00,2859E-2,5C000400,-0724,1021,10469,023.6,045.2,0.165,759.1,01.16,0.508
2014-05-02 02:24:00,2799E-2,5C000400,-0724,1021,10266,023.6,045.2,0.164,759.2,01.16,0.508
2014-05-02 02:25:00,2842E-2,5C000400,-0724,1020,10258,023.6,045.2,0.165,759.2,01.16,0.508
2014-05-02 02:26:00,2785E-2,5C000400,-0724,1019,10287,023.6,045.2,0.165,759.1,01.16,0.508
2014-05-02 02:27:00,2879E-2,5C000400,-0724,1020,10304,023.6,045.2,0.164,759.2,01.16,0.508
2014-05-02 02:28:00,2866E-2,5C000400,-0724,1020,10267,023.6,045.2,0.164,759.2,01.16,0.508
2014-05-02 02:29:00,2826E-2,5C000400,-0724,1021,10298,023.6,045.2,0.165,759.2,01.16,0.508
2014-05-02 02:30:00,2867E-2,5C000400,-0724,1020,10356,023.7,045.2,0.164,759.2,01.16,0.508
2014-05-02 02:31:00,2859E-2,5C000400,-0724,1022,10211,023.7,045.2,0.164,759.2,01.16,0.508
2014-05-02 02:32:00,2894E-2,5C000400,-0724,1021,10377,023.7,045.2,0.164,759.2,01.16,0.508
2014-05-02 02:33:00,2845E-2,5C000400,-0724,1021,10305,023.7,045.2,0.164,759.3,01.16,0.508
2014-05-02 02:34:00,2823E-2,5C000400,-0724,1020,10370,023.7,045.2,0.164,759.2,01.16,0.508
2014-05-02 02:35:00,2836E-2,5C000400,-0724,1021,10288,023.7,045.2,0.164,759.2,01.16,0.508
2014-05-02 02:36:00,2821E-2,5C000400,-0724,1021,10352,023.7,045.2,0.164,759.3,01.16,0.508
2014-05-02 02:37:00,2850E-2,5C000400,-0724,1022,10393,023.7,045.2,0.164,759.2,01.16,0.508
2014-05-02 02:38:00,2855E-2,5C000400,-0724,1021,10311,023.7,045.2,0.164,759.2,01.16,0.508
2014-05-02 02:39:00,2831E-2,5C000400,-0724,1022,10335,023.7,045.2,0.164,759.3,01.16,0.508
2014-05-02 02:40:00,2841E-2,5C000400,-0724,1022,10305,023.7,045.2,0.164,759.3,01.16,0.508
2014-05-02 02:41:00,2848E-2,5C000400,-0724,1021,10291,023.7,045.2,0.164,759.2,01.16,0.508
2014-05-02 02:42:00,2851E-2,5C000400,-0724,1022,10379,023.7,045.2,0.164,759.2,01.16,0.508
2014-05-02 02:43:00,2855E-2,5C000400,-0724,1023,10216,023.7,045.2,0.164,759.2,01.16,0.508
2014-05-02 02:44:00,2844E-2,5C000400,-0724,1022,10255,023.7,045.2,0.164,759.2,01.16,0.508
2014-05-02 02:45:00,2844E-2,5C000400,-0724,1021,10459,023.8,045.2,0.164,759.2,01.16,0.508
2014-05-02 02:46:00,2865E-2,5C000400,-0724,1022,10333,023.7,045.2,0.164,759.2,01.16,0.508
2014-05-02 02:47:00,2846E-2,5C000410,-0724,1023,9996,023.8,045.2,0.164,759.2,01.16,0.508
2014-05-02 02:48:00,2828E-2,5C000400,-0724,1022,10294,023.8,045.2,0.164,759.2,01.16,0.508
2014-05-02 02:49:00,2852E-2,5C000400,-0724,1022,10340,023.8,045.2,0.164,759.3,01.16,0.508
2014-05-02 02:50:00,2869E-2,5C000400,-0724,1023,10188,023.8,045.2,0.164,759.3,01.16,0.508
2014-05-02 02:51:00,2833E-2,5C000400,-0724,1023,10287,023.8,045.2,0.164,759.2,01.16,0.508
2014-05-02 02:52:00,2828E-2,5C000400,-0724,1023,10329,023.8,045.2,0.164,759.2,01.16,0.508
2014-05-02 02:53:00,2848E-2,5C000400,-0724,1023,10365,023.8,045.2,0.164,759.2,01.16,0.508
2014-05-02 02:54:00,2814E-2,5C000400,-0724,1022,10257,023.8,045.2,0.164,759.2,01.16,0.508
2014-05-02 02:55:00,2779E-2,5C000400,-0724,1021,10289,023.8,045.2,0.164,759.3,01.16,0.508
2014-05-02 02:56:00,2832E-2,5C000400,-0724,1020,10278,023.8,045.2,0.164,759.3,01.16,0.508
2014-05-02 02:57:00,2794E-2,5C000400,-0724,1021,10224,023.9,045.2,0.164,759.2,01.16,0.508
2014-05-02 02:58:00,2823E-2,5C000400,-0724,1020,10272,023.9,045.2,0.164,759.3,01.16,0.508
2014-05-02 02:59:00,2811E-2,5C000400,-0724,1019,10317,023.9,045.2,0.164,759.3,01.16,0.508
2014-05-02 03:00:00,2837E-2,5C000400,-0724,1019,10430,023.9,045.2,0.164,759.2,01.16,0.508
2014-05-02 03:01:00,2809E-2,5C000400,-0724,1021,10411,023.9,045.2,0.164,759.2,01.16,0.508
2014-05-02 03:02:00,2785E-2,5C000400,-0724,1019,10315,023.9,045.2,0.164,759.2,01.16,0.508
2014-05-02 03:03:00,2779E-2,5C000400,-0724,1021,10334,023.9,045.2,0.164,759.3,01.16,0.508
2014-05-02 03:04:00,2781E-2,5C000400,-0724,1021,10270,023.9,045.2,0.164,759.3,01.16,0.508
2014-05-02 03:05:00,2820E-2,5C000400,-0724,1019,10345,023.9,045.2,0.164,759.2,01.16,0.508
2014-05-02 03:06:00,2822E-2,5C000400,-0724,1020,10428,023.9,045.2,0.164,759.2,01.16,0.508
2014-05-02 03:07:00,2809E-2,5C000400,-0724,1020,10365,023.9,045.2,0.164,759.2,01.16,0.508
2014-05-02 03:08:00,2808E-2,5C000400,-0724,1020,10197,023.9,045.2,0.164,759.2,01.16,0.508
2014-05-02 03:09:00,2794E-2,5C000400,-0724,1020,10408,024.0,045.2,0.164,759.2,01.16,0.508
2014-05-02 03:10:00,2830E-2,5C000400,-0724,1020,10406,024.0,045.2,0.164,759.1,01.16,0.508
2014-05-02 03:11:00,2859E-2,5C000400,-0724,1020,10224,024.0,045.1,0.164,759.2,01.16,0.508
2014-05-02 03:12:00,2822E-2,5C000400,-0724,1021,10286,024.0,045.2,0.164,759.2,01.16,0.508
2014-05-02 03:13:00,2771E-2,5C000400,-0724,1019,10347,024.0,045.2,0.164,759.2,01.16,0.508
2014-05-02 03:14:00,2794E-2,5C000400,-0724,1020,10312,024.0,045.2,0.164,759.2,01.16,0.508
2014-05-02 03:15:00,2801E-2,5C000400,-0724,1020,10226,024.0,045.2,0.164,759.2,01.16,0.508
2014-05-02 03:16:00,2835E-2,5C000400,-0724,1020,10377,024.0,045.2,0.163,759.2,01.16,0.508
2014-05-02 03:17:00,2824E-2,5C000400,-0724,1019,10322,024.0,045.2,0.164,759.2,01.16,0.508
2014-05-02 03:18:00,2841E-2,5C000400,-0724,1019,10340,024.0,045.2,0.164,759.3,01.16,0.508
2014-05-02 03:19:00,2783E-2,5C000400,-0724,1019,10418,024.0,045.2,0.163,759.2,01.16,0.508
2014-05-02 03:20:00,2824E-2,5C000400,-0724,1019,10259,024.0,045.2,0.163,759.2,01.16,0.508
2014-05-02 03:21:00,2807E-2,5C000400,-0724,1018,10253,024.0,045.2,0.163,759.2,01.16,0.508
2014-05-02 03:22:00,2797E-2,5C000400,-0724,1019,10200,024.0,045.2,0.163,759.2,01.16,0.508
2014-05-02 03:23:00,2789E-2,5C000400,-0724,1019,10378,024.0,045.2,0.163,759.2,01.16,0.508
2014-05-02 03:24:00,2815E-2,5C000400,-0724,1019,10408,024.0,045.2,0.163,759.2,01.16,0.508
2014-05-02 03:25:00,2813E-2,5C000400,-0724,1018,10361,024.0,045.2,0.163,759.2,01.16,0.508
2014-05-02 03:26:00,2817E-2,5C000400,-0724,1018,10496,024.0,045.2,0.163,759.1,01.16,0.508
2014-05-02 03:27:00,2831E-2,5C000400,-0724,1016,10368,024.0,045.2,0.163,759.2,01.16,0.508
2014-05-02 03:28:00,2819E-2,5C000400,-0724,1017,10189,024.0,045.2,0.163,759.2,01.16,0.508
2014-05-02 03:29:00,2789E-2,5C000400,-0724,1018,10435,024.0,045.2,0.163,759.2,01.16,0.508
2014-05-02 03:30:00,2826E-2,5C000400,-0724,1019,10346,024.1,045.2,0.163,759.2,01.16,0.508
2014-05-02 03:31:00,2797E-2,5C000400,-0724,1019,10346,024.1,045.2,0.163,759.1,01.16,0.508
2014-05-02 03:32:00,2823E-2,5C000400,-0724,1018,10304,024.1,045.2,0.124,759.1,01.16,0.508
2014-05-02 03:33:00,2840E-2,5C000400,-0724,1019,10278,024.1,045.2,0.000,759.2,01.16,0.508
2014-05-02 03:34:00,2834E-2,5C000400,-0724,1020,10446,024.1,045.2,0.000,759.2,01.16,0.508
2014-05-02 03:35:00,2825E-2,5C000400,-0724,1020,10279,024.1,045.2,0.000,759.2,01.16,0.508
2014-05-02 03:36:00,2851E-2,5C000400,-0724,1019,10334,024.1,045.2,0.000,759.2,01.16,0.508
2014-05-02 03:37:00,2849E-2,5C000400,-0724,1020,10367,024.1,045.2,0.000,759.2,01.16,0.508
2014-05-02 03:38:00,2829E-2,5C000400,-0724,1021,10251,024.1,045.2,0.000,759.2,01.16,0.508
2014-05-02 03:39:00,2859E-2,5C000400,-0724,1022,10201,024.1,045.2,0.000,759.2,01.16,0.508
2014-05-02 03:40:00,2850E-2,5C000400,-0724,1024,10115,024.1,045.2,0.000,759.1,01.16,0.508
2014-05-02 03:41:00,2887E-2,5C000400,-0724,1024,10321,024.1,045.2,0.000,759.2,01.16,0.508
2014-05-02 03:42:00,2878E-2,5C000400,-0724,1025,10178,024.1,045.2,0.000,759.2,01.16,0.508
2014-05-02 03:43:00,2848E-2,5C000400,-0724,1025,10144,024.1,045.2,0.000,759.1,01.16,0.508
2014-05-02 03:44:00,2861E-2,5C000400,-0724,1025,10447,024.2,045.2,0.000,759.0,01.16,0.508
2014-05-02 03:45:00,2874E-2,5C000400,-0724,1027,10414,024.2,045.2,0.000,759.1,01.16,0.508
2014-05-02 03:46:00,2858E-2,5C000400,-0724,1027,10307,024.2,045.2,0.000,759.1,01.16,0.508
2014-05-02 03:47:00,2888E-2,5C000400,-0724,1027,10367,024.2,045.2,0.000,759.2,01.16,0.508
2014-05-02 03:48:00,2832E-2,5C000400,-0724,1027,10168,024.2,045.2,0.000,759.2,01.16,0.508
2014-05-02 03:49:00,2848E-2,5C000400,-0724,1027,10221,024.2,045.2,0.000,759.1,01.16,0.508
2014-05-02 03:50:00,2843E-2,5C000400,-0724,1027,10166,024.2,045.2,0.000,759.1,01.16,0.508
2014-05-02 03:51:00,2863E-2,5C000400,-0724,1027,10353,024.2,045.2,0.000,759.1,01.16,0.508
2014-05-02 03:52:00,2852E-2,5C000400,-0724,1027,10242,024.2,045.2,0.000,759.2,01.16,0.508
2014-05-02 03:53:00,2917E-2,5C000400,-0724,1028,10241,024.2,045.2,0.000,759.2,01.16,0.508
2014-05-02 03:54:00,2923E-2,5C000400,-0724,1028,10334,024.2,045.2,0.000,759.2,01.16,0.508
2014-05-02 03:55:00,2890E-2,5C000400,-0724,1028,10283,024.2,045.2,0.000,759.2,01.16,0.508
2014-05-02 03:56:00,2860E-2,5C000400,-0724,1029,10290,024.2,045.2,0.000,759.2,01.16,0.508
2014-05-02 03:57:00,2895E-2,5C000400,-0724,1028,10235,024.2,045.2,0.000,759.2,01.16,0.508
2014-05-02 03:58:00,2891E-2,5C000400,-0724,1029,10301,024.3,045.2,0.000,759.2,01.16,0.508
2014-05-02 03:59:00,2884E-2,5C000400,-0724,1030,10183,024.3,045.2,0.000,759.2,01.16,0.508
2014-05-02 04:00:00,2907E-2,5C000400,-0724,1029,10307,024.3,045.2,0.000,759.3,01.16,0.508
2014-05-02 04:01:00,2884E-2,5C000400,-0724,1030,10165,024.3,045.2,0.000,759.3,01.16,0.508
2014-05-02 04:02:00,2875E-2,5C000400,-0724,1029,10270,024.3,045.2,0.000,759.3,01.16,0.508
2014-05-02 04:03:00,2909E-2,5C000400,-0724,1030,10271,024.3,045.2,0.000,759.2,01.16,0.508
2014-05-02 04:04:00,2896E-2,5C000400,-0724,1030,10157,024.3,045.2,0.000,759.2,01.16,0.508
2014-05-02 04:05:00,2918E-2,5C000400,-0724,1031,10156,024.3,045.2,0.000,759.3,01.16,0.508
2014-05-02 04:06:00,2887E-2,5C000400,-0724,1028,10043,024.3,045.2,0.000,759.3,01.16,0.508
2014-05-02 04:07:00,2883E-2,5C000400,-0724,1030,10059,024.3,045.2,0.000,759.2,01.16,0.508
2014-05-02 04:08:00,2871E-2,5C000400,-0724,1030,10394,024.3,045.2,0.000,759.2,01.16,0.508
2014-05-02 04:09:00,2927E-2,5C000400,-0724,1030,10193,024.3,045.2,0.000,759.3,01.16,0.508
2014-05-02 04:10:00,2916E-2,5C000400,-0724,1029,10131,024.3,045.2,0.000,759.2,01.16,0.508
2014-05-02 04:11:00,2905E-2,5C000400,-0724,1029,10263,024.3,045.2,0.000,759.3,01.16,0.508
2014-05-02 04:12:00,2910E-2,5C000400,-0724,1030,10207,024.3,045.2,0.000,759.3,01.16,0.508
2014-05-02 04:13:00,2938E-2,5C000400,-0724,1030,10376,024.3,045.2,0.000,759.3,01.16,0.508
2014-05-02 04:14:00,2920E-2,5C000400,-0724,1032,10243,024.3,045.2,0.000,759.3,01.16,0.508
2014-05-02 04:15:00,2883E-2,5C000400,-0724,1031,10324,024.3,045.2,0.000,759.3,01.16,0.508
2014-05-02 04:16:00,2965E-2,5C000400,-0724,1030,10281,024.3,045.2,0.000,759.2,01.16,0.508
2014-05-02 04:17:00,2920E-2,5C000400,-0724,1031,10227,024.4,045.2,0.000,759.3,01.16,0.508
2014-05-02 04:18:00,2905E-2,5C000400,-0724,1031,10137,024.4,045.2,0.000,759.3,01.16,0.508
2014-05-02 04:19:00,2914E-2,5C000400,-0724,1032,10332,024.4,045.2,0.000,759.3,01.16,0.508
2014-05-02 04:20:00,2885E-2,5C000400,-0724,1031,10115,024.4,045.2,0.000,759.3,01.16,0.508